Time,TemperatureF,DewpointF,PressureIn,WindDirection,WindDirectionDegrees,WindSpeedMPH,WindSpeedGustMPH,Humidity,HourlyPrecipIn,Conditions,Clouds,dailyrainin,SoftwareType,DateUTC
2013-09-05 00:04:00,71.0,66.0,30.18,NW,306,0.0,0.0,84,0.00,,,0.00,,2013-09-05 04:04:00,
2013-09-05 00:13:00,71.0,66.0,30.18,NW,306,0.0,0.0,84,0.00,,,0.00,,2013-09-05 04:13:00,
2013-09-05 00:24:00,71.0,66.0,30.17,NW,306,0.0,0.0,85,0.00,,,0.00,,2013-09-05 04:24:00,
2013-09-05 00:34:00,71.0,66.0,30.17,NW,306,0.0,0.0,85,0.00,,,0.00,,2013-09-05 04:34:00,
2013-09-05 00:53:00,70.0,66.0,30.17,NW,306,0.0,0.0,87,0.00,,,0.00,,2013-09-05 04:53:00,
2013-09-05 01:03:00,70.0,66.0,30.17,NW,306,0.0,0.0,87,0.00,,,0.00,,2013-09-05 05:03:00,
2013-09-05 01:13:00,70.0,66.0,30.17,NW,306,0.0,0.0,87,0.00,,,0.00,,2013-09-05 05:13:00,
2013-09-05 01:23:00,70.0,67.0,30.17,NW,306,0.0,0.0,89,0.00,,,0.00,,2013-09-05 05:23:00,
2013-09-05 01:34:00,70.0,67.0,30.17,NW,306,0.0,0.0,89,0.00,,,0.00,,2013-09-05 05:34:00,
2013-09-05 01:52:00,69.0,66.0,30.17,NW,306,0.0,0.0,90,0.00,,,0.00,,2013-09-05 05:52:00,
2013-09-05 02:02:00,69.0,66.0,30.17,NW,306,0.0,0.0,90,0.00,,,0.00,,2013-09-05 06:02:00,
2013-09-05 02:13:00,69.0,66.0,30.17,NW,306,0.0,0.0,90,0.00,,,0.00,,2013-09-05 06:13:00,
2013-09-05 02:22:00,68.0,66.0,30.17,NW,306,0.0,0.0,92,0.00,,,0.00,,2013-09-05 06:22:00,
2013-09-05 02:32:00,68.0,66.0,30.17,NW,306,0.0,0.0,92,0.00,,,0.00,,2013-09-05 06:32:00,
2013-09-05 02:52:00,68.0,66.0,30.16,NW,306,0.0,0.0,94,0.00,,,0.00,,2013-09-05 06:52:00,
2013-09-05 03:01:00,68.0,66.0,30.16,NW,306,0.0,0.0,94,0.00,,,0.00,,2013-09-05 07:01:00,
2013-09-05 03:12:00,68.0,66.0,30.16,NW,306,0.0,0.0,94,0.00,,,0.00,,2013-09-05 07:12:00,
2013-09-05 03:23:00,69.0,67.0,30.16,NW,306,0.0,0.0,94,0.00,,,0.00,,2013-09-05 07:23:00,
2013-09-05 03:32:00,69.0,67.0,30.16,NW,306,0.0,0.0,94,0.00,,,0.00,,2013-09-05 07:32:00,
2013-09-05 03:52:00,68.0,66.0,30.15,NW,306,0.0,0.0,94,0.00,,,0.00,,2013-09-05 07:52:00,
2013-09-05 04:03:00,68.0,66.0,30.15,NW,306,0.0,0.0,94,0.00,,,0.00,,2013-09-05 08:03:00,
2013-09-05 04:12:00,68.0,66.0,30.15,NW,306,0.0,0.0,94,0.00,,,0.00,,2013-09-05 08:12:00,
2013-09-05 04:22:00,68.0,66.0,30.14,NW,306,0.0,0.0,94,0.00,,,0.00,,2013-09-05 08:22:00,
2013-09-05 04:32:00,68.0,66.0,30.14,NW,306,0.0,0.0,94,0.00,,,0.00,,2013-09-05 08:32:00,
2013-09-05 04:52:00,68.0,67.0,30.14,NW,306,0.0,0.0,95,0.00,,,0.00,,2013-09-05 08:52:00,
2013-09-05 05:03:00,68.0,67.0,30.14,NW,306,0.0,0.0,95,0.00,,,0.00,,2013-09-05 09:03:00,
2013-09-05 05:11:00,68.0,67.0,30.14,NW,306,0.0,0.0,95,0.00,,,0.00,,2013-09-05 09:11:00,
2013-09-05 05:22:00,68.0,67.0,30.15,NW,306,0.0,0.0,96,0.00,,,0.00,,2013-09-05 09:22:00,
2013-09-05 05:33:00,68.0,67.0,30.15,NW,306,0.0,0.0,96,0.00,,,0.00,,2013-09-05 09:33:00,
2013-09-05 05:54:00,68.0,67.0,30.16,NW,306,0.0,0.0,96,0.00,,,0.00,,2013-09-05 09:54:00,
2013-09-05 06:03:00,68.0,67.0,30.16,NW,306,0.0,0.0,96,0.00,,,0.00,,2013-09-05 10:03:00,
2013-09-05 06:13:00,68.0,67.0,30.16,NW,306,0.0,0.0,96,0.00,,,0.00,,2013-09-05 10:13:00,
2013-09-05 06:23:00,67.0,66.0,30.17,NW,306,0.0,0.0,96,0.00,,,0.00,,2013-09-05 10:23:00,
2013-09-05 06:33:00,67.0,66.0,30.17,NW,306,0.0,0.0,96,0.00,,,0.00,,2013-09-05 10:33:00,
2013-09-05 06:53:00,67.0,66.0,30.17,NW,306,0.0,0.0,96,0.00,,,0.00,,2013-09-05 10:53:00,
2013-09-05 08:52:00,66.0,65.0,30.20,NW,306,0.0,0.0,97,0.00,,,0.00,,2013-09-05 12:52:00,
2013-09-05 09:12:00,66.0,65.0,30.20,NW,306,0.0,0.0,97,0.00,,,0.00,,2013-09-05 13:12:00,
2013-09-05 09:22:00,68.0,67.0,30.20,NW,306,0.0,0.0,98,0.00,,,0.00,,2013-09-05 13:22:00,
2013-09-05 09:53:00,70.0,69.0,30.21,NW,306,0.0,0.0,97,0.00,,,0.00,,2013-09-05 13:53:00,
2013-09-05 10:02:00,70.0,69.0,30.21,NW,306,0.0,0.0,97,0.00,,,0.00,,2013-09-05 14:02:00,
2013-09-05 10:22:00,76.0,71.0,30.21,NW,306,0.0,1.0,85,0.00,,,0.00,,2013-09-05 14:22:00,
2013-09-05 10:32:00,76.0,71.0,30.21,NW,306,0.0,1.0,85,0.00,,,0.00,,2013-09-05 14:32:00,
2013-09-05 10:42:00,76.0,71.0,30.21,NW,306,0.0,1.0,85,0.00,,,0.00,,2013-09-05 14:42:00,
2013-09-05 10:52:00,79.0,71.0,30.21,NW,306,0.0,1.0,76,0.00,,,0.00,,2013-09-05 14:52:00,
2013-09-05 11:02:00,79.0,71.0,30.21,NW,306,0.0,1.0,76,0.00,,,0.00,,2013-09-05 15:02:00,
2013-09-05 11:22:00,82.0,71.0,30.22,NW,306,0.0,1.0,70,0.00,,,0.00,,2013-09-05 15:22:00,
2013-09-05 11:34:00,82.0,71.0,30.22,NW,306,0.0,1.0,70,0.00,,,0.00,,2013-09-05 15:34:00,
2013-09-05 11:54:00,84.0,69.0,30.22,NW,306,0.0,1.0,61,0.00,,,0.00,,2013-09-05 15:54:00,
2013-09-05 12:03:00,84.0,69.0,30.22,NW,306,0.0,1.0,61,0.00,,,0.00,,2013-09-05 16:03:00,
2013-09-05 12:24:00,86.0,71.0,30.21,NW,306,0.0,1.0,61,0.00,,,0.00,,2013-09-05 16:24:00,
2013-09-05 12:33:00,86.0,71.0,30.21,NW,306,0.0,1.0,61,0.00,,,0.00,,2013-09-05 16:33:00,
2013-09-05 12:43:00,86.0,71.0,30.21,NW,306,0.0,1.0,61,0.00,,,0.00,,2013-09-05 16:43:00,
2013-09-05 12:54:00,87.0,69.0,30.21,NW,306,0.0,1.0,56,0.00,,,0.00,,2013-09-05 16:54:00,
2013-09-05 13:03:00,87.0,69.0,30.21,NW,306,0.0,1.0,56,0.00,,,0.00,,2013-09-05 17:03:00,
2013-09-05 13:12:00,87.0,69.0,30.21,NW,306,0.0,1.0,56,0.00,,,0.00,,2013-09-05 17:12:00,
2013-09-05 13:23:00,86.0,69.0,30.21,NW,306,0.0,1.0,58,0.00,,,0.00,,2013-09-05 17:23:00,
2013-09-05 13:34:00,86.0,69.0,30.21,NW,306,0.0,1.0,58,0.00,,,0.00,,2013-09-05 17:34:00,
2013-09-05 13:43:00,86.0,69.0,30.21,NW,306,0.0,1.0,58,0.00,,,0.00,,2013-09-05 17:43:00,
2013-09-05 13:52:00,87.0,69.0,30.20,NW,306,0.0,1.0,55,0.00,,,0.00,,2013-09-05 17:52:00,
2013-09-05 14:02:00,87.0,69.0,30.20,NW,306,0.0,1.0,55,0.00,,,0.00,,2013-09-05 18:02:00,
2013-09-05 14:12:00,87.0,69.0,30.20,NW,306,0.0,1.0,55,0.00,,,0.00,,2013-09-05 18:12:00,
2013-09-05 14:22:00,87.0,69.0,30.19,NW,306,0.0,1.0,55,0.00,,,0.00,,2013-09-05 18:22:00,
2013-09-05 14:32:00,87.0,69.0,30.19,NW,306,0.0,1.0,55,0.00,,,0.00,,2013-09-05 18:32:00,
2013-09-05 14:52:00,85.0,70.0,30.19,NW,306,0.0,0.0,62,0.00,,,0.00,,2013-09-05 18:52:00,
2013-09-05 15:02:00,85.0,70.0,30.19,NW,306,0.0,0.0,62,0.00,,,0.00,,2013-09-05 19:02:00,
2013-09-05 15:11:00,85.0,70.0,30.19,NW,306,0.0,0.0,62,0.00,,,0.00,,2013-09-05 19:11:00,
2013-09-05 15:22:00,89.0,68.0,30.17,NW,306,0.0,2.0,50,0.00,,,0.00,,2013-09-05 19:22:00,
2013-09-05 15:32:00,89.0,68.0,30.17,NW,306,0.0,2.0,50,0.00,,,0.00,,2013-09-05 19:32:00,
2013-09-05 15:42:00,89.0,68.0,30.17,NW,306,0.0,2.0,50,0.00,,,0.00,,2013-09-05 19:42:00,
2013-09-05 15:52:00,88.0,69.0,30.16,NW,306,0.0,1.0,54,0.00,,,0.00,,2013-09-05 19:52:00,
2013-09-05 16:03:00,88.0,69.0,30.16,NW,306,0.0,1.0,54,0.00,,,0.00,,2013-09-05 20:03:00,
2013-09-05 16:22:00,86.0,68.0,30.16,NW,306,0.0,1.0,55,0.00,,,0.00,,2013-09-05 20:22:00,
2013-09-05 16:32:00,86.0,68.0,30.16,NW,306,0.0,1.0,55,0.00,,,0.00,,2013-09-05 20:32:00,
2013-09-05 16:52:00,86.0,69.0,30.15,NW,306,0.0,2.0,57,0.00,,,0.00,,2013-09-05 20:52:00,
2013-09-05 17:02:00,86.0,69.0,30.15,NW,306,0.0,2.0,57,0.00,,,0.00,,2013-09-05 21:02:00,
2013-09-05 17:22:00,84.0,70.0,30.15,NW,306,0.0,1.0,62,0.00,,,0.00,,2013-09-05 21:22:00,
2013-09-05 17:33:00,84.0,69.0,30.16,WNW,299,0.0,3.0,61,0.00,,,0.00,,2013-09-05 21:33:00,
2013-09-05 17:34:00,84.0,70.0,30.15,NW,306,0.0,1.0,62,0.00,,,0.00,,2013-09-05 21:34:00,
2013-09-05 17:54:00,84.0,69.0,30.16,WNW,299,0.0,3.0,61,0.00,,,0.00,,2013-09-05 21:54:00,
2013-09-05 18:04:00,84.0,69.0,30.16,WNW,299,0.0,3.0,61,0.00,,,0.00,,2013-09-05 22:04:00,
2013-09-05 18:13:00,84.0,69.0,30.16,WNW,299,0.0,3.0,61,0.00,,,0.00,,2013-09-05 22:13:00,
2013-09-05 18:24:00,84.0,69.0,30.16,WNW,299,0.0,3.0,61,0.00,,,0.00,,2013-09-05 22:24:00,
2013-09-05 18:53:00,83.0,70.0,30.15,WNW,296,0.0,0.0,64,0.00,,,0.00,,2013-09-05 22:53:00,
2013-09-05 19:02:00,83.0,70.0,30.15,WNW,296,0.0,0.0,64,0.00,,,0.00,,2013-09-05 23:02:00,
2013-09-05 19:12:00,83.0,70.0,30.15,WNW,296,0.0,0.0,64,0.00,,,0.00,,2013-09-05 23:12:00,
2013-09-05 19:22:00,82.0,69.0,30.15,WNW,296,0.0,0.0,66,0.00,,,0.00,,2013-09-05 23:22:00,
2013-09-05 19:34:00,82.0,69.0,30.15,WNW,296,0.0,0.0,66,0.00,,,0.00,,2013-09-05 23:34:00,
2013-09-05 19:53:00,80.0,70.0,30.15,WNW,296,0.0,0.0,71,0.00,,,0.00,,2013-09-05 23:53:00,
2013-09-05 20:02:00,80.0,70.0,30.15,WNW,296,0.0,0.0,71,0.00,,,0.00,,2013-09-06 00:02:00,
2013-09-05 20:12:00,80.0,70.0,30.15,WNW,296,0.0,0.0,71,0.00,,,0.00,,2013-09-06 00:12:00,
2013-09-05 20:22:00,78.0,70.0,30.16,WNW,296,0.0,0.0,76,0.00,,,0.00,,2013-09-06 00:22:00,
2013-09-05 20:33:00,78.0,70.0,30.16,WNW,296,0.0,0.0,76,0.00,,,0.00,,2013-09-06 00:33:00,
2013-09-05 20:42:00,78.0,70.0,30.16,WNW,296,0.0,0.0,76,0.00,,,0.00,,2013-09-06 00:42:00,
2013-09-05 20:52:00,77.0,70.0,30.16,WNW,296,0.0,0.0,80,0.00,,,0.00,,2013-09-06 00:52:00,
2013-09-05 21:02:00,77.0,70.0,30.16,WNW,296,0.0,0.0,80,0.00,,,0.00,,2013-09-06 01:02:00,
2013-09-05 21:11:00,77.0,70.0,30.16,WNW,296,0.0,0.0,80,0.00,,,0.00,,2013-09-06 01:11:00,
2013-09-05 21:22:00,75.0,69.0,30.18,WNW,296,0.0,0.0,83,0.00,,,0.00,,2013-09-06 01:22:00,
2013-09-05 21:32:00,75.0,69.0,30.18,WNW,296,0.0,0.0,83,0.00,,,0.00,,2013-09-06 01:32:00,
2013-09-05 21:42:00,75.0,69.0,30.18,WNW,296,0.0,0.0,83,0.00,,,0.00,,2013-09-06 01:42:00,
2013-09-05 21:52:00,74.0,69.0,30.18,WNW,296,0.0,0.0,84,0.00,,,0.00,,2013-09-06 01:52:00,
2013-09-05 22:02:00,74.0,69.0,30.18,WNW,296,0.0,0.0,84,0.00,,,0.00,,2013-09-06 02:02:00,
2013-09-05 22:22:00,73.0,68.0,30.19,WNW,296,0.0,0.0,85,0.00,,,0.00,,2013-09-06 02:22:00,
2013-09-05 22:32:00,73.0,68.0,30.19,WNW,296,0.0,0.0,85,0.00,,,0.00,,2013-09-06 02:32:00,
2013-09-05 22:42:00,73.0,68.0,30.19,WNW,296,0.0,0.0,85,0.00,,,0.00,,2013-09-06 02:42:00,
2013-09-05 22:52:00,73.0,69.0,30.19,WNW,296,0.0,0.0,86,0.00,,,0.00,,2013-09-06 02:52:00,
2013-09-05 23:02:00,73.0,69.0,30.19,WNW,296,0.0,0.0,86,0.00,,,0.00,,2013-09-06 03:02:00,
2013-09-05 23:03:00,72.0,68.0,30.19,WNW,296,0.0,0.0,88,0.00,,,0.00,,2013-09-06 03:03:00,
2013-09-05 23:22:00,72.0,68.0,30.19,WNW,296,0.0,0.0,88,0.00,,,0.00,,2013-09-06 03:22:00,
2013-09-05 23:34:00,72.0,68.0,30.19,WNW,296,0.0,0.0,88,0.00,,,0.00,,2013-09-06 03:34:00,
2013-09-05 23:55:00,72.0,68.0,30.19,WNW,296,0.0,0.0,88,0.00,,,0.00,,2013-09-06 03:55:00,